Powrót do katalogu

ONEWEB-0538

AktywnyŁącznośćPO
NORAD 56047·PAYLOAD·🇬🇧 United Kingdom

Wystrzelony Mar 26, 2023 z Satish Dhawan Space Centre

Loading…

Następne Przeloty (najbliższe 24 godziny)

TLE

ŚwieżeSource: CelesTrak SupGP

Epoka: Sep 14, 2026, 20:56 UTC

1 56047C 23043B   26257.87272409  .00000713  00000+0  18686-2 0  2573
2 56047  87.9151 210.9665 0001875  75.3575 322.8840 13.16594862    10

Śledź ONEWEB-0538 w czasie rzeczywistym z AllMySat

Download on the App Store